This is the latest recevied weather packets stored in our database for station/object N8AMF. If no packets are shown the sender has not sent any weather packets the latest 10 day(s).
| Time | Temp. | Humidity | Pressure | Rain* | Wind** | Luminosity | Snow |
|---|---|---|---|---|---|---|---|
| 1777246940 | 10° C | 85% | 1019.4 hPa | 0 mm | - | 28 W/m² | - |
| 1777246635 | 10° C | 85% | 1019.3 hPa | 0 mm | - | 29 W/m² | - |
| 1777246332 | 10° C | 84% | 1019.4 hPa | 0 mm | - | 32 W/m² | - |
| 1777246029 | 10° C | 84% | 1019.3 hPa | 0 mm | - | 35 W/m² | - |
| 1777245727 | 10° C | 84% | 1019.2 hPa | 0 mm | - | 38 W/m² | - |
| 1777245424 | 10.56° C | 83% | 1019.3 hPa | 0 mm | - | 41 W/m² | - |
| 1777245124 | 10.56° C | 83% | 1019.5 hPa | 0 mm | - | 45 W/m² | - |
| 1777244821 | 10.56° C | 82% | 1019.6 hPa | 0 mm | - | 47 W/m² | - |
| 1777244516 | 10.56° C | 82% | 1019.5 hPa | 0 mm | - | 49 W/m² | - |
| 1777244213 | 10.56° C | 83% | 1019.5 hPa | 0 mm | - | 53 W/m² | - |
| 1777243912 | 11.11° C | 82% | 1019.5 hPa | 0 mm | - | 56 W/m² | - |
| 1777243608 | 11.11° C | 83% | 1019.8 hPa | 0 mm | - | 56 W/m² | - |
| 1777243304 | 10.56° C | 82% | 1019.6 hPa | 0 mm | - | 58 W/m² | - |
| 1777243000 | 10.56° C | 82% | 1019.7 hPa | 0 mm | - | 59 W/m² | - |
| 1777242698 | 10.56° C | 82% | 1019.8 hPa | 0 mm | - | 58 W/m² | - |
| 1777242393 | 10.56° C | 82% | 1019.8 hPa | 0 mm | - | 61 W/m² | - |
| 1777242090 | 10.56° C | 83% | 1019.9 hPa | 0 mm | - | 62 W/m² | - |
| 1777241788 | 10.56° C | 82% | 1019.9 hPa | 0 mm | - | 62 W/m² | - |
| 1777241485 | 11.11° C | 83% | 1019.8 hPa | 0 mm | - | 66 W/m² | - |
| 1777241183 | 11.11° C | 83% | 1019.8 hPa | 0 mm | - | 69 W/m² | - |
| 1777240880 | 11.11° C | 81% | 1020 hPa | 0 mm | - | 147 W/m² | - |
| 1777240578 | 11.67° C | 80% | 1019.9 hPa | 0 mm | - | 354 W/m² | - |
| 1777240275 | 11.67° C | 81% | 1019.9 hPa | 0 mm | - | 375 W/m² | - |
| 1777239972 | 11.67° C | 80% | 1019.8 hPa | 0 mm | - | 404 W/m² | - |
| 1777239670 | 11.67° C | 79% | 1019.8 hPa | 0 mm | - | 424 W/m² | - |
* Rain latest hour (hover to see other rain measurements)
** Current wind speed in m/s (hover to see current wind gust speed)